Location: Le Domaine
(47.0333°N, 76.5361°W)
Time: 03:17:19
(UTC-05:00)

deb Explorer IX - Visible Passes

Search period start: 17 November 2019 00:00
Search period end: 27 November 2019 00:00
Orbit: 546 x 1105 km, 38.8° (Epoch: 16 November)

Date Brightness Start Highest point End Pass type
(mag) Time Alt. Az. Time Alt. Az. Time Alt. Az.
17 Nov ? 04:52:19 30° SSW 04:52:40 30° S 04:56:44 10° SE visible
17 Nov ? 06:35:53 10° WSW 06:38:38 15° SSW 06:41:13 10° S visible
18 Nov ? 04:31:35 29° S 04:31:35 29° S 04:34:57 10° SE visible
18 Nov ? 06:13:49 10° WSW 06:16:43 16° SSW 06:19:26 10° S visible
19 Nov ? 04:10:52 23° SSE 04:10:52 23° SSE 04:13:09 10° SE visible
19 Nov ? 05:52:14 12° WSW 05:54:48 16° SSW 05:57:38 10° S visible
20 Nov ? 03:50:09 16° SE 03:50:09 16° SE 03:51:20 10° SE visible
20 Nov ? 05:31:32 15° SW 05:32:51 17° SSW 05:35:50 10° S visible
21 Nov ? 03:29:29 10° SE 03:29:29 10° SE 03:29:31 10° SE visible
21 Nov ? 05:10:52 17° SSW 05:10:53 17° SSW 05:14:02 10° S visible
22 Nov ? 04:50:13 16° SSW 04:50:13 16° SSW 04:52:13 10° SSE visible
23 Nov ? 04:29:37 13° S 04:29:37 13° S 04:30:24 10° SSE visible
